Location: Erp
(42.9417°N, 1.2009°E)
Time: 11:18:43
(UTC+00:00)

NOSS 3-4 (A) - Pass Details

Date: 12 January 2026
Orbit: 769 x 1442 km, 63.4° (Epoch: 10 January)

Event Time Altitude Azimuth Distance (km) Brightness Sun altitude
Rises 19:20:21 0° 239° (WSW) 3,233 7.2 -28.3°
Reaches altitude 10° 19:22:49 10° 248° (WSW) 2,327 6.3 -28.7°
Maximum altitude 19:27:45 39° 317° (NW) 1,211 4.2 -29.6°
Enters shadow 19:28:55 35° 345° (NNW) 1,319 4.2 -29.8°
